Regional Weather Roundup
Issued by NWS

Home | Current Version | Previous Version | Graphics & Text | Print | Product List | Glossary On
Versions: 1 2 3 4 5 6 7 8 9 10 11 12 13 14 15 16 17 18 19 20 21 22 23 24 25 26 27 28 29 30 31 32 33 34 35 36 37 38 39 40 41 42 43 44 45 46 47 48 49 50
000
ASUS45 KCYS 280310
RWRWY

WYOMING REGIONAL WEATHER ROUNDUP
NATIONAL WEATHER SERVICE CHEYENNE WY
900 PM MDT WED APR 27 2016

NOTE:  "FAIR" INDICATES FEW OR NO CLOUDS BELOW 12,000 FEET
WITH NO SIGNIFICANT WEATHER AND/OR OBSTRUCTIONS TO VISIBILITY.

WYZ001-280400-
YELLOWSTONE NATIONAL PARK

CITY           SKY/WX    TMP DP  RH WIND       PRES   REMARKS
LK YELLOWSTONE   N/A     33  23  66 MISG      29.88R
W YELLOWSTONE  NOT AVBL

$$
WYZ002>013-054>058-071-098>099-280400-
NORTHERN WYOMING

CITY           SKY/WX    TMP DP  RH WIND       PRES   REMARKS
JACKSON        CLOUDY    39  27  60 N8        29.81R WCI  34
CODY           CLOUDY    34  30  86 N9        29.95R WCI  26
GREYBULL       CLOUDY    40  27  59 NW16      29.92R WCI  31
WORLAND        LGT RAIN  38  34  85 NW9       29.93R WCI  31
SHERIDAN       LGT SNOW  33  32  96 NW8       29.97S FOG     WCI  26
BUFFALO        LGT SNOW  32  30  92 N15G24    29.94R FOG     WCI  22
GILLETTE       LGT SNOW  32 N/A N/A N9        29.92R WCI  24
HULETT         LGT SNOW  32  32 100 N8        29.93R WCI  25
NEWCASTLE      FLURRIES  32  30  93 N8        29.89R WCI  25

$$
WYZ014>020-022>026-101>103-280400-
CENTRAL WYOMING

CITY           SKY/WX    TMP DP  RH WIND       PRES   REMARKS
BIG PINEY      CLOUDY    35  31  85 SE16G23   29.84R WCI  25
PINEDALE       CLOUDY    36  30  80 S12       29.85R WCI  27
DUBOIS         FLURRIES  32  30  93 SE12      29.86R WCI  23
LANDER         CLOUDY    38  31  76 E6        29.89R WCI  33
RIVERTON       CLOUDY    38  31  76 NE12      29.91R WCI  30
CASPER         CLOUDY    33  29  85 NE9       29.91R WCI  25
DOUGLAS        CLOUDY    35  31  85 NW13      29.91R WCI  26

$$
WYZ021-027>030-104>119-280400-
SOUTHERN WYOMING

CITY           SKY/WX    TMP DP  RH WIND       PRES   REMARKS
EVANSTON       CLOUDY    39  33  79 SW5       29.79R
KEMMERER         N/A     37  32  81 E6        29.83R WCI  33
FORT BRIDGER   CLEAR     37  37 100 MISG      29.84R
ROCK SPRINGS   FAIR      37  30  75 NE14      29.85R WCI  28
DIXON          FAIR      38  31  76 NE9       29.87R WCI  31
RAWLINS        CLOUDY    34  26  72 N7        29.89R WCI  28
SARATOGA       FAIR      32  28  86 CALM      29.90R
LARAMIE        MOCLDY    29  27  92 SE6       29.87R WCI  23
CHEYENNE       FAIR      32  25  75 NE5       29.87R WCI  27
TORRINGTON     FAIR      37  29  72 NW15      29.87R WCI  28
PINE BLUFFS    FAIR      34  28  80 N13       29.86R WCI  25

$$



USA.gov is the U.S. government's official web portal to all federal, state and local government web resources and services.